User: anonymous   Login
Location: Caracas
(10.5033°N, 66.8422°W)
Time: 03:00:13
(UTC-04:00)
Language:

M-CUBED/EXP-1 PRIME - Orbit

View from above orbital plane
View from above orbital plane
View from above satellite
View from above satellite

Ground track
Ground track

The orbit data is extracted from the following two-line orbital elements,

1 37855U 11061F   19318.13021260  .00002515  00000-0  13194-3 0  9998
2 37855 101.7216 289.9733 0172699 356.7217   3.2849 15.05772097439111
Epoch (UTC): 14 November 2019 03:07:30
Eccentricity: 0.0172699
inclination: 101.7216°
perigee height: 429 km
apogee height: 669 km
right ascension of ascending node: 289.9733°
argument of perigee: 356.7217°
revolutions per day: 15.05772097
mean anomaly at epoch: 3.2849°
orbit number at epoch: 43911

The dashed part of the orbit path shows where the satellite is in the earth's shadow,  

DLR